Location: Borovka
(49.7741°N, 14.5280°E)
Time: 17:56:28
(UTC+00:00)

Cosmos 1833 Rocket - Pass Details

Date: 17 November 2025
Orbit: 829 x 840 km, 71.0° (Epoch: 08 December)

Event Time Altitude Azimuth Distance (km) Brightness Sun altitude
Rises 16:39:45 0° 325° (NW) 3,406 6.1 -13.4°
Reaches altitude 10° 16:42:22 10° 317° (NW) 2,467 5.5 -13.8°
Maximum altitude 16:47:26 35° 254° (WSW) 1,334 4.5 -14.6°
Drops below altitude 10° 16:52:28 10° 190° (S) 2,449 5.4 -15.4°
Sets 16:55:05 0° 181° (S) 3,378 6.0 -15.8°
